Dewpoint
55 44 39 44 38 32 25 26 22 26 26 27 33 30 30 38 40 46 59 59 61 63 65 68 70 70 70 71 70 69 68 66 65 65 65 65 65 66 66 67 68 68 67 65 63 63 63 63 63
44 35 43 41 31 27 21 21 22 27 30 27 32 32 30 40 51 55 59 61 61 62 63 66 70 71 70 71 70 69 68 66 65 64 64 64 64 65 66 67 69 67 66 63 63 63 63 63 63
45 33 40 36 28 21 21 18 24 31 29 28 30 35 35 43 53 58 61 61 61 62 64 67 70 71 71 70 70 69 68 66 64 63 62 62 63 64 65 67 67 65 64 63 63 63 63 63 63
38 37 33 27 25 21 19 17 28 29 27 28 30 33 41 48 54 59 62 61 61 62 65 69 71 71 71 71 70 69 68 66 65 63 62 61 62 64 65 65 65 63 62 62 62 62 63 63 62
38 35 32 27 22 20 19 19 25 27 25 26 29 32 43 50 55 61 61 61 60 63 67 69 71 71 71 70 70 69 69 67 66 64 62 61 61 62 63 64 63 61 61 61 61 62 62 62 61
33 31 28 26 21 19 19 19 22 21 21 29 28 25 42 50 55 60 61 61 62 64 67 69 68 69 70 70 70 69 69 68 67 64 62 60 61 62 62 62 61 59 59 60 61 61 61 61 61
37 34 27 25 20 21 19 20 21 21 19 25 26 25 43 50 55 61 61 60 62 63 65 67 69 68 67 68 68 69 68 68 67 66 64 63 62 63 63 62 59 57 58 59 60 61 60 61 62
34 31 27 23 20 23 21 22 24 22 23 28 31 26 37 46 53 59 60 60 61 63 63 64 66 68 68 68 66 66 67 67 67 66 64 62 62 62 61 61 59 56 57 59 60 60 61 60 60
33 27 23 22 21 21 22 22 23 24 24 27 32 31 41 46 54 56 58 59 61 63 62 63 64 65 67 68 65 65 65 65 65 63 61 58 57 55 57 59 59 57 57 59 60 60 58 58 58
29 28 23 19 18 19 21 20 22 21 22 23 29 35 44 51 53 55 57 57 59 62 62 63 64 64 65 66 66 67 67 66 64 62 59 58 58 57 56 57 58 58 58 58 59 58 58 55 52
28 27 19 17 24 20 22 21 21 20 21 21 23 31 44 51 53 54 56 57 59 60 62 63 64 64 64 65 67 67 67 66 64 61 60 62 57 56 56 55 54 54 54 54 54 56 53 52 51
23 22 20 30 30 26 24 22 20 21 21 24 25 30 43 50 51 52 54 55 59 61 61 62 64 64 65 65 67 66 66 66 65 63 62 62 58 57 54 54 53 52 50 49 51 52 51 50 49
21 18 18 26 28 26 26 24 23 22 22 24 25 29 36 46 49 51 52 54 55 58 60 62 63 63 64 65 66 65 65 66 65 64 63 63 60 59 55 55 54 54 54 52 51 51 49 48 46
24 21 20 24 25 25 26 22 24 22 24 22 25 26 28 35 44 47 50 52 54 57 58 62 62 63 63 65 65 65 65 65 65 66 65 63 61 60 59 55 54 55 55 52 51 48 47 45 42
27 23 20 20 23 25 27 23 20 21 23 23 22 25 26 27 33 40 46 49 52 55 58 60 62 62 63 63 64 65 65 65 65 65 65 64 62 61 59 55 54 54 54 51 46 43 42 38 33
22 21 18 21 24 27 28 16 18 21 18 20 22 21 24 26 27 31 38 47 51 54 58 60 61 63 63 62 62 62 63 64 64 65 65 65 63 62 60 56 55 56 53 47 42 40 37 35 31
22 13 14 22 25 26 26 24 24 25 23 22 22 21 21 24 26 27 32 40 49 53 57 58 60 61 62 61 61 61 61 62 63 63 65 65 64 62 60 58 57 55 50 46 41 38 34 32 30
16 17 14 15 24 26 25 25 25 23 23 24 24 23 23 24 24 27 30 35 46 50 55 57 59 59 59 59 59 60 60 61 61 62 63 64 64 63 61 60 56 53 49 45 41 37 34 31 27
18 18 15 15 25 24 23 22 19 18 17 18 19 20 22 22 23 27 29 32 40 47 51 56 58 57 57 58 58 57 58 59 60 61 61 62 63 64 61 59 56 53 49 45 40 36 31 30 26
22 19 17 16 25 24 22 20 19 18 18 18 20 20 20 21 22 23 30 32 37 41 49 53 55 56 56 56 57 56 56 56 58 57 58 59 60 61 60 58 55 53 51 46 39 35 31 28 27
20 18 16 16 23 24 23 22 22 23 21 19 21 21 21 20 21 21 28 32 34 39 44 50 52 54 55 55 54 51 50 50 51 53 55 56 57 59 59 57 55 53 51 46 38 34 31 28 27
19 21 19 21 20 16 25 16 15 12 11 19 23 24 23 23 25 25 25 32 35 36 41 45 47 49 51 51 50 49 48 47 49 51 51 53 54 57 57 56 55 53 51 47 40 37 35 32 28
22 27 23 24 22 25 22 20 16 13 11 11 14 18 21 23 25 26 27 29 34 38 40 42 44 44 44 46 47 48 48 48 49 48 48 49 51 53 55 55 54 52 51 47 42 38 38 35 32
28 26 26 25 22 17 14 17 10 11 12 11 13 18 23 28 30 29 30 36 36 40 42 42 42 42 44 45 47 48 48 48 46 48 49 50 49 50 51 52 53 52 51 48 44 41 39 38 36
27 22 17 20 21 19 16 13 10 13 12 15 15 18 21 37 32 32 34 32 34 38 42 43 42 41 42 44 46 48 49 48 47 48 49 48 47 46 47 49 50 50 50 48 44 42 41 41 40
27 22 21 14 18 17 21 16 17 18 19 19 21 23 25 32 29 30 32 35 35 37 40 41 41 41 41 43 46 47 48 48 48 49 49 48 47 48 47 47 48 48 48 47 45 44 42 42 41
26 24 23 21 19 20 19 17 16 21 17 19 20 21 21 25 30 32 32 34 37 38 39 40 40 42 41 42 45 46 48 48 48 48 48 48 47 46 44 44 45 46 47 47 46 45 43 43 42
25 25 22 23 15 14 16 16 14 16 15 18 22 27 30 31 34 34 34 35 36 38 39 40 41 41 42 42 44 45 46 46 47 48 47 46 45 45 43 43 43 43 44 45 46 44 43 41 40
25 23 24 22 22 19 14 13 15 22 26 28 29 29 31 32 32 33 34 35 36 37 39 40 40 41 42 43 43 45 45 45 46 47 46 45 44 43 42 41 41 38 39 41 43 41 39 39 36
25 21 22 21 19 21 20 17 22 23 26 26 27 30 31 31 31 32 33 34 35 36 38 39 40 41 42 43 43 44 44 44 45 45 44 43 42 39 38 36 36 35 36 37 39 38 36 34 32
Lifted_Index
7 7 6 4 3 3 3 3 4 5 5 4 4 4 4 3 1 -1 -2 -2 -2 -2 -2 -2 -3 -3 -3 -3 -2 -2 -1 -0 1 1 1 1 1 0 -0 -1 -2 -1 -0 1 2 3 3 3 3
8 7 6 4 4 3 3 4 4 5 5 5 5 4 4 2 0 -2 -3 -3 -3 -2 -2 -3 -3 -3 -3 -3 -2 -1 -1 -0 1 1 1 1 1 0 -0 -1 -1 -1 0 2 2 3 3 3 3
8 7 5 4 4 4 4 5 5 5 5 5 5 4 3 1 -1 -2 -3 -3 -3 -3 -3 -3 -4 -4 -4 -3 -2 -2 -1 0 1 2 2 2 2 1 0 -1 -1 0 1 2 3 3 3 3 3
7 6 5 5 4 5 5 5 5 5 6 6 5 4 3 1 -1 -3 -3 -3 -3 -3 -3 -4 -4 -4 -4 -4 -3 -2 -1 -0 0 1 2 3 3 2 1 1 1 2 3 3 3 3 3 3 3
7 6 5 5 5 5 5 6 6 6 6 6 5 4 3 1 -1 -3 -3 -3 -3 -3 -4 -4 -4 -4 -4 -4 -3 -3 -2 -1 -0 1 3 3 3 3 2 2 2 3 4 4 4 4 4 4 4
6 6 5 5 5 5 5 6 6 6 6 6 6 5 3 2 -0 -2 -3 -3 -3 -3 -3 -4 -4 -4 -4 -3 -3 -3 -2 -2 -1 1 2 3 3 3 3 3 4 5 5 5 5 4 4 4 4
6 6 5 5 5 5 5 6 6 6 7 7 6 5 4 2 0 -2 -3 -3 -3 -3 -3 -3 -3 -3 -3 -3 -3 -3 -2 -2 -1 0 2 3 3 3 3 4 5 6 6 6 5 5 5 5 4
6 6 5 5 5 5 6 6 6 6 7 7 7 6 4 3 1 -1 -2 -2 -2 -2 -2 -2 -2 -3 -3 -3 -2 -2 -2 -1 -0 1 2 3 4 4 4 5 6 7 7 6 5 5 5 5 5
6 6 5 5 6 6 6 6 6 7 7 7 7 6 5 3 1 -0 -1 -2 -2 -2 -2 -2 -2 -2 -3 -2 -2 -2 -1 -1 0 1 2 3 3 4 5 6 6 7 7 6 6 6 6 6 7
6 6 5 6 6 6 6 6 6 6 6 7 7 7 5 3 1 0 -1 -1 -1 -2 -2 -2 -2 -2 -2 -2 -2 -2 -1 -1 0 1 2 2 3 4 5 6 6 7 7 7 6 7 7 7 7
6 6 6 6 6 6 6 6 6 6 6 7 7 7 5 3 2 1 -0 -1 -1 -1 -2 -2 -2 -2 -2 -2 -2 -2 -2 -1 0 1 1 2 2 3 4 5 5 6 6 6 7 7 7 7 7
6 6 6 6 7 6 6 6 6 6 6 7 7 7 6 4 2 1 1 -0 -1 -1 -2 -2 -2 -2 -2 -2 -2 -2 -2 -1 -1 0 1 1 2 2 3 4 4 5 6 6 6 6 6 7 7
7 7 7 7 7 6 6 6 5 5 6 7 7 7 7 5 3 2 1 1 -0 -1 -1 -1 -2 -2 -2 -2 -2 -2 -2 -2 -1 -0 0 1 1 2 3 3 4 5 5 5 5 5 6 6 6
7 7 6 6 6 6 6 5 5 5 6 7 7 7 7 7 5 4 2 1 1 -0 -1 -1 -1 -2 -2 -2 -2 -2 -2 -2 -1 -1 -0 0 1 1 2 3 3 4 5 5 5 5 5 6 6
7 6 6 6 6 6 5 5 5 5 6 6 6 7 8 8 7 6 4 3 2 1 -0 -1 -1 -1 -2 -2 -2 -2 -2 -2 -2 -1 -1 -0 0 1 1 2 3 3 4 4 4 5 5 6 6
6 5 5 5 6 6 5 4 4 6 6 6 6 6 7 8 8 7 6 4 3 1 0 -1 -1 -1 -2 -2 -1 -1 -1 -1 -2 -2 -1 -1 -0 0 1 1 2 2 3 3 4 4 4 5 6
5 4 4 5 6 6 5 4 5 6 6 5 5 6 6 7 8 8 7 6 4 2 1 -0 -1 -1 -1 -1 -1 -1 -1 -1 -1 -1 -1 -1 -1 -0 0 1 1 2 2 2 3 3 4 5 5
5 4 5 5 6 6 5 4 5 6 5 5 5 5 6 6 7 8 8 7 5 3 2 0 -0 -0 -0 0 0 0 -0 -0 -1 -1 -1 -1 -1 -0 -0 0 1 1 1 2 2 3 3 4 5
6 5 5 6 6 6 5 5 5 5 5 5 5 5 5 5 6 7 8 8 7 5 3 1 0 0 1 1 1 1 0 0 0 0 -0 -1 -1 -1 -0 0 0 1 1 2 2 2 3 4 4
6 5 5 6 6 6 5 5 5 5 5 4 4 4 4 4 5 6 7 8 7 6 4 3 1 1 2 2 2 1 1 1 1 1 1 0 -0 -0 -0 0 0 1 1 1 2 2 3 4 4
6 5 5 5 6 6 5 4 4 4 4 4 4 4 4 4 5 6 7 7 7 7 6 4 3 3 3 3 3 3 2 2 2 3 3 2 1 1 0 0 0 1 1 1 1 2 3 3 4
6 6 6 5 5 5 5 4 3 4 4 4 4 4 4 4 4 5 6 7 7 7 7 6 5 4 4 5 5 5 5 5 5 6 6 5 4 3 1 0 1 1 1 1 2 2 3 3 3
6 6 6 6 5 5 4 3 3 3 3 4 4 4 4 4 5 5 6 7 7 8 8 8 7 7 7 7 7 7 7 7 7 8 8 8 7 5 3 1 1 2 2 2 2 2 3 3 3
7 6 5 5 4 4 4 4 4 4 4 5 5 5 5 5 5 6 6 7 7 8 8 8 8 8 8 8 8 8 8 8 8 8 8 8 8 7 5 3 3 2 2 3 3 3 2 3 3
6 5 4 3 2 3 4 4 4 5 6 6 6 6 5 5 6 6 7 7 7 7 7 7 7 8 8 9 9 9 8 8 9 8 8 8 8 8 7 5 4 3 3 3 3 3 2 3 3
5 5 3 2 2 3 4 4 5 7 7 7 6 6 6 6 6 7 7 7 7 7 7 7 7 7 7 8 8 9 9 9 9 9 8 8 9 9 8 6 5 4 4 4 4 3 3 3 4
5 5 4 3 2 3 3 4 5 7 7 7 7 7 7 6 7 7 7 7 7 7 7 7 6 6 7 7 8 8 8 8 9 9 9 8 9 9 9 7 6 5 4 4 4 4 4 4 4
5 5 5 4 2 2 2 4 5 7 7 7 7 7 7 7 6 6 6 6 6 6 6 6 6 6 7 7 7 7 8 8 8 8 8 8 8 9 9 8 7 6 5 5 4 4 4 4 4
5 5 4 4 3 2 2 3 5 7 7 7 7 7 6 6 6 5 5 5 6 6 6 6 6 7 7 7 7 7 7 7 7 7 7 7 8 8 9 8 7 6 5 5 5 4 5 5 5
5 5 4 4 3 3 3 4 6 7 7 7 7 7 6 6 5 5 5 5 5 5 5 6 7 7 7 7 7 7 6 6 6 6 7 7 8 8 9 8 8 7 6 5 5 5 5 5 5